Tucson Davis Monthan, AZ

5:09 AM MST on September 21, 2019 (GMT -0700)
Davis-Monthan Air Force Base

Weather History for KDMA - May, 2019

Change the Weather History Date:

Tuesday, May 21, 2019

  Actual Average Record
Temperature  
Mean Temperature 64 °F -  
Max Temperature 79 °F 91 °F 107 °F (2005)
Min Temperature 49 °F 59 °F 45 °F (1974)
Degree Days  
Heating Degree Days 1    
Growing Degree Days 14 (Base 50)    
Moisture  
Dew Point 30 °F    
Average Humidity 32    
Maximum Humidity 62    
Minimum Humidity 11    
Precipitation  
Precipitation 0.00 in - - ()
Sea Level Pressure  
Sea Level Pressure 29.74 in    
Wind  
Wind Speed 7 mph (SSW)    
Max Wind Speed 16 mph    
Max Gust Speed 26 mph    
Visibility 10 miles    
Events      
Averages and records for this station are not official NWS values.
T = Trace of Precipitation, MM = Missing Value Source: NWS Daily Summary

Daily Weather History Graph

Daily Weather History Graph

Search for Another Location

Airport or City:

Astronomy

May. 21, 2019 Rise Set
Actual Time 5:22 AM MST 7:18 PM MST
Civil Twilight 4:55 AM MST 7:45 PM MST
Nautical Twilight 4:22 AM MST 8:18 PM MST
Astronomical Twilight 3:46 AM MST 8:54 PM MST
Moon 10:14 PM MST 7:43 AM MST
Length of Visible Light 14h 50m
Length of Day
13h 55m
Waning Gibbous, 91% of the Moon is Illuminated
May 21
Waning Gibbous
May 26
Last Quarter
Jun 3
New
Jun 9
First Quarter
Jun 17
Full

Hourly Weather History & Observations

Time (MST) Temp. Dew Point Humidity Pressure Visibility Wind Dir Wind Speed Gust Speed Precip Events Conditions
12:58 AM 50.4 °F 29.8 °F 45% 29.89 in 10.0 mi South 4.6 mph - N/A   Clear
1:58 AM 50.9 °F 31.8 °F 48% 29.83 in 10.0 mi ESE 5.8 mph - N/A   Clear
2:58 AM 50.2 °F 34.7 °F 55% 29.83 in 10.0 mi SE 4.6 mph - N/A   Clear
3:58 AM 49.5 °F 36.5 °F 61% 29.83 in 10.0 mi SSE 5.8 mph - N/A   Clear
4:58 AM 49.5 °F 37.0 °F 62% 29.81 in 10.0 mi SSE 6.9 mph - N/A   Clear
5:58 AM 50.0 °F 34.9 °F 56% 29.81 in 10.0 mi SE 9.2 mph - N/A   Clear
6:58 AM 55.9 °F 35.4 °F 46% 29.82 in 10.0 mi ESE 6.9 mph - N/A   Clear
7:58 AM 60.8 °F 36.9 °F 41% 29.83 in 10.0 mi SE 5.8 mph - N/A   Clear
8:58 AM 63.7 °F 36.1 °F 36% 29.81 in 10.0 mi SSE 6.9 mph - N/A   Clear
9:58 AM 66.6 °F 31.5 °F 27% 29.78 in 10.0 mi SW 8.1 mph - N/A   Clear
10:58 AM 68.5 °F 33.3 °F 27% 29.76 in 10.0 mi WSW 4.6 mph - N/A   Clear
11:58 AM 70.9 °F 31.3 °F 23% 29.75 in 10.0 mi North 3.5 mph - N/A   Clear
12:58 PM 75.2 °F 25.9 °F 16% 29.70 in 10.0 mi West 15.0 mph 19.6 mph N/A   Clear
1:58 PM 77.7 °F 24.6 °F 14% 29.68 in 10.0 mi SW 13.8 mph 24.2 mph N/A   Clear
2:28 PM 78.8 °F 21.2 °F 12% 29.66 in 10.0 mi WNW 13.8 mph 24.2 mph N/A   Clear
2:34 PM 78.8 °F 21.2 °F 12% 29.66 in 10.0 mi WSW 15.0 mph 21.9 mph N/A   Clear
2:58 PM 79.0 °F 19.9 °F 11% 29.64 in 10.0 mi West 15.0 mph 26.5 mph N/A   Clear
8:56 PM 69.6 °F 30.2 °F 23% 29.62 in 10.0 mi WSW 5.8 mph - N/A   Clear
9:58 PM 68.7 °F 23.5 °F 18% 29.62 in 10.0 mi West 16.1 mph 21.9 mph N/A   Clear
10:58 PM 65.7 °F 25.7 °F 22% 29.63 in 10.0 mi Calm Calm - N/A   Clear
11:58 PM 64.2 °F 23.4 °F 21% 29.63 in 10.0 mi WNW 3.5 mph - N/A   Clear